Regional Weather Roundup
Issued by NWS

Home | Current Version | Previous Version | Text Only | Print | Product List | Glossary Off
Versions: 1 2 3 4 5 6 7 8 9 10 11 12 13 14 15 16 17 18 19 20 21 22 23 24 25 26 27 28 29 30 31 32 33 34 35 36 37 38 39 40 41 42 43 44 45 46 47 48 49 50

166
ASUS45 KCYS 171810
RWRWY

WYOMING REGIONAL WEATHER ROUNDUP
NATIONAL WEATHER SERVICE CHEYENNE WY
1200 PM MDT TUE OCT 17 2017

NOTE:  "FAIR" INDICATES FEW OR NO CLOUDS BELOW 12,000 FEET
WITH NO SIGNIFICANT WEATHER AND/OR OBSTRUCTIONS TO VISIBILITY.

WYZ001-171900-
YELLOWSTONE NATIONAL PARK

CITY           SKY/WX    TMP DP  RH WIND       PRES   REMARKS
LK YELLOWSTONE NOT AVBL
W YELLOWSTONE  NOT AVBL

$$
WYZ002>013-054>058-071-098>099-171900-
NORTHERN WYOMING

CITY           SKY/WX    TMP DP  RH WIND       PRES   REMARKS
JACKSON        FAIR      45  24  43 VRB5      30.30F
CODY           FAIR      67  16  14 SW9       30.09F
GREYBULL       FAIR      56  30  37 SE5       30.09F
6HR MIN TEMP:  27; 6HR MAX TEMP:  56;

WORLAND        FAIR      57  34  41 CALM      30.10F
6HR MIN TEMP:  27; 6HR MAX TEMP:  57;

SHERIDAN       FAIR      74  18  12 VRB3      30.00F
6HR MIN TEMP:  33; 6HR MAX TEMP:  75;

BUFFALO        FAIR      69  13  11 SE9       30.06F
6HR MIN TEMP:  46; 6HR MAX TEMP:  69;

GILLETTE       FAIR      68  23  18 S7        30.04F
6HR MIN TEMP:  37; 6HR MAX TEMP:  68;

HULETT         FAIR      66  32  28 W5        30.05F
NEWCASTLE      FAIR      59  25  27 S8        30.10S

$$
WYZ014>020-022>026-101>103-171900-
CENTRAL WYOMING

CITY           SKY/WX    TMP DP  RH WIND       PRES   REMARKS
BIG PINEY      FAIR      50  18  28 VRB5      30.34F
6HR MIN TEMP:  16; 6HR MAX TEMP:  50;

PINEDALE       FAIR      54  18  24 CALM      30.34F
DUBOIS         FAIR      59  10  14 NW14G21   30.21F
LANDER         NOT AVBL
RIVERTON       FAIR      57  30  35 SE5       30.18F
6HR MIN TEMP:  33; 6HR MAX TEMP:  57;

CASPER         FAIR      63  16  16 SW26G33   30.16F
6HR MIN TEMP:  39; 6HR MAX TEMP:  63;

DOUGLAS        FAIR      69  16  13 NW10      30.13F
6HR MIN TEMP:  25; 6HR MAX TEMP:  69;


$$
WYZ021-027>030-104>119-171900-
SOUTHERN WYOMING

CITY           SKY/WX    TMP DP  RH WIND       PRES   REMARKS
EVANSTON       FAIR      61   9  12 SW13      30.34F
6HR MIN TEMP:  37; 6HR MAX TEMP:  61;

KEMMERER       FAIR      59   7  12 W9        30.35F
FORT BRIDGER   FAIR      65   8  10 W13       30.36F
ROCK SPRINGS   FAIR      58   2  10 W8        30.33F
6HR MIN TEMP:  35; 6HR MAX TEMP:  58;

DIXON          FAIR      61   9  12 SW12      30.37F
RAWLINS        FAIR      60   7  12 W20       30.31F
6HR MIN TEMP:  41; 6HR MAX TEMP:  60;

SARATOGA       FAIR      63   9  12 SW17      30.32F
LARAMIE        FAIR      64   5   9 W24       30.28F
6HR MIN TEMP:  33; 6HR MAX TEMP:  64;

CHEYENNE       FAIR      69   8   9 W24G31    30.23F
6HR MIN TEMP:  42; 6HR MAX TEMP:  69;

TORRINGTON     FAIR      69  17  13 N3        30.11F
6HR MIN TEMP:  26; 6HR MAX TEMP:  70;

PINE BLUFFS    FAIR      72  10   9 W16G24    30.19F

$$




USA.gov is the U.S. government's official web portal to all federal, state and local government web resources and services.